TIME,DELAY(SENSOR),PRES,T(CTD),SAL,OXYGEN,RAWTEMP,T(OPTODE),TCPHASE,FLUOR,BETA(BETA700),BETA(BETA412),BETA(BETA440),CDOM,C(CSC),ED(ED412.40),ED(ED444.00),ED(ED489.70),ED(ED554.30),LU(LU411.80),LU(LU443.40),LU(LU489.60),LU(LU554.10),COMP,TILTX,TILTX(TILTY),CHECK
1352236645,5808,496.8999938964844000,6.7473001480102540,34.1236991882324200,86.6812133789062500,595.5446166992188000,6.7280998229980470,48.0747718811035160,51,104,82,79,80,15185,2147752731,2147424228,2148001801,2147874624,2147631158,2147079597,2148247753,2147202934,413,5,12,5788
1352236760,5807,485.2399902343750000,6.8393998146057130,34.1186981201171900,89.9561767578125000,592.5197143554688000,6.8256440162658690,47.6632003784179700,52,105,90,79,78,15187,2147750811,2147424274,2148002432,2147870235,2147631094,2147079250,2148246976,2147203684,150,4,13,43666
1352236877,5808,473.2799987792969000,6.9460000991821290,34.1180992126464840,93.7091064453125000,589.2937011718750000,6.9295787811279300,47.2010993957519500,51,105,90,80,77,15186,2147748809,2147421321,2148001426,2147873718,2147631186,2147079771,2148242752,2147199497,3069,4,13,60177
1352236992,5807,461.3800048828125000,7.0700998306274410,34.1128005981445300,96.9479293823242200,585.3449707031250000,7.0566649436950680,46.7905311584472660,51,105,90,81,79,15187,2147748379,2147420918,2148001316,2147871186,2147631195,2147077083,2148242514,2147201024,3192,5,13,27836
1352237095,5809,450.9700012207031000,7.2898001670837400,34.1026992797851560,104.4441986083984400,578.4619140625000000,7.2778592109680180,45.8950881958007800,51,104,89,79,77,15188,2147745353,2147419337,2148001453,2147872594,2147632429,2147079085,2148242569,2147199817,583,4,13,13266
1352237213,5805,441.2600097656250000,7.5837001800537110,34.0917015075683600,117.1634979248046900,569.6176757812500000,7.5614428520202640,44.4823799133300800,51,106,89,80,78,15186,2147749056,2147418898,2148002706,2147871021,2147625206,2147085046,2148240941,2147202697,2980,4,13,59325
1352237388,5809,430.0400085449219000,7.7052998542785645,34.0870018005371100,127.5429000854492200,565.9171752929688000,7.6798949241638180,43.4474411010742200,50,104,87,80,76,15191,2147743570,2147421421,2148001481,2147872905,2147626230,2147090880,2148233060,2147201764,2271,4,13,58952
1352237544,5809,418.1799926757812500,8.0812997817993160,34.0947990417480500,135.0594940185547000,553.9575805664062000,8.0619153976440430,42.5708503723144500,50,104,88,80,76,15188,2147747108,2147419410,2148002386,2147871259,2147622070,2147088320,2148237769,2147208630,3493,4,13,62769
1352237659,5807,407.6600036621094000,8.4296998977661130,34.0976982116699200,142.8506927490234400,543.0535888671875000,8.4091739654541020,41.7104911804199200,50,103,89,81,75,15189,2147744365,2147419812,2147998528,2147872173,2147621458,2147092096,2148232566,2147202532,275,5,13,54416
1352237788,5809,395.4899902343750000,8.6814002990722660,34.1032981872558600,152.3282928466797000,534.7448120117188000,8.6731405258178710,40.7877388000488300,50,104,88,80,76,15188,2147741714,2147421376,2148000402,2147870189,2147621138,2147090368,2148233993,2147205129,638,4,12,11152
1352237915,5810,383.7699890136719000,9.0523996353149410,34.1096992492675800,163.8081970214843800,523.2651977539062000,9.0369491577148440,39.6971282958984400,50,105,91,81,74,15188,2147738221,2147425508,2148000585,2147873947,2147618843,2147090331,2148230098,2147202962,2200,4,13,45258
1352238030,5810,373.5199890136719000,9.3634004592895500,34.1143989562988300,173.1582031250000000,513.7172851562500000,9.3387775421142580,38.8449897766113300,50,106,90,80,74,15187,2147740754,2147421961,2148001389,2147872283,2147616054,2147095734,2148230061,2147205650,2794,4,13,54377
1352238171,5808,362.4400024414062500,9.6066999435424800,34.1186981201171900,181.1098022460937500,505.5064086914062500,9.5978107452392580,38.1476593017578100,50,105,89,81,73,15185,2147737673,2147422409,2148002843,2147871725,2147615533,2147097536,2148228096,2147203565,3493,4,13,42050
1352238322,5806,352.2699890136719000,9.8861999511718750,34.1246986389160160,188.3609924316406200,496.7013854980469000,9.8750505447387700,37.5107002258300800,50,105,89,79,72,15188,2147738313,2147423469,2148002715,2147871213,2147614189,2147098230,2148224420,2147204772,3455,4,14,21847
1352238482,5806,340.2500000000000000,10.2306995391845700,34.1287002563476560,193.7299957275390600,484.9388122558594000,10.2445898056030270,36.9638404846191400,50,104,88,80,72,15186,2147740032,2147420434,2148003456,2147873773,2147613147,2147096475,2148225545,2147206326,2867,4,13,47791
1352238609,5811,328.7200012207031000,11.0327997207641600,34.1622009277343750,204.1976013183593800,459.7478027343750000,11.0329999923706050,35.8970298767089840,49,105,88,80,70,15185,2147733705,2147424265,2148004891,2147869842,2147609746,2147108370,2148220699,2147204416,2526,4,13,54042
1352238726,5808,317.8699951171875000,11.5641002655029300,34.1878013610839840,210.5326995849609400,443.4614868164062500,11.5406799316406250,35.2581596374511700,49,103,88,79,69,15184,2147729645,2147421705,2148010468,2147875200,2147605165,2147106962,2148220763,2147205933,2179,3,13,13117
1352238841,5804,307.8099975585937500,12.0250997543334960,34.2135009765625000,212.8957061767578000,425.7247924804687500,12.0919303894042970,34.8388595581054700,49,105,86,80,68,15186,2147729106,2147426413,2148013001,2147873654,2147604672,2147114486,2148221211,2147208786,1938,4,14,45969
1352238992,5810,296.7699890136719000,12.7258996963500980,34.2354011535644500,211.8957061767578000,405.1650085449219000,12.7289304733276370,34.5726699829101560,48,105,85,79,68,15177,2147728512,2147426934,2148018989,2147873453,2147602322,2147119488,2148220288,2147203510,1934,3,13,40197
1352239181,5809,286.0400085449219000,13.4401998519897460,34.2662010192871100,212.4002075195312500,379.2728881835937500,13.5284595489501950,34.1436614990234400,49,104,89,80,68,15178,2147726171,2147428571,2148027574,2147872009,2147598144,2147136365,2148219986,2147208475,95,4,13,31129
1352239388,5808,273.1799926757812500,14.1323995590209960,34.3367996215820300,213.7001037597656200,359.4621887207031000,14.1384296417236330,33.7696189880371100,49,103,89,78,68,15176,2147722258,2147438811,2148041563,2147872310,2147591844,2147136018,2148218953,2147209883,103,3,13,20923
1352239515,5806,262.1099853515625000,14.5064001083374020,34.3760986328125000,214.2514038085937500,347.0877990722656000,14.5187597274780270,33.5534400939941400,48,104,85,81,68,15176,2147722230,2147442432,2148059611,2147872978,2147590619,2147147254,2148229394,2147212388,2647,3,14,33966
1352239642,5806,251.4299926757812500,15.8811998367309570,34.5231018066406250,212.7917022705078000,304.5776977539062500,15.8220796585083000,33.0089492797851560,49,105,89,79,67,15174,2147719643,2147458468,2148086372,2147873298,2147587894,2147155913,2148237732,2147211428,3537,4,14,41887
1352239795,5807,240.8300018310547000,16.4500007629394530,34.5992012023925800,214.7066955566406200,284.3906860351562500,16.4396495819091800,32.6122283935546900,50,105,88,81,67,15171,2147721115,2147470317,2148122477,2147871771,2147583561,2147173229,2148246811,2147212169,917,3,13,62020
1352239958,5808,229.9499969482422000,17.3784999847412100,34.7224998474121100,214.0066986083984400,254.3986053466797000,17.3561897277832030,32.2244186401367200,50,106,87,80,66,15171,2147720493,2147493476,2148173120,2147872009,2147581174,2147194761,2148271232,2147215506,521,3,14,16035
1352240094,5811,218.5299987792968800,18.2415008544921880,34.8315010070800800,212.8780975341797000,224.8009948730468800,18.2600994110107420,31.8731307983398440,51,105,87,80,66,15167,2147728603,2147534729,2148258203,2147871844,2147579227,2147220397,2148306733,2147221046,3281,3,13,52150
1352240209,5809,207.3899993896484400,18.9001998901367200,34.9127006530761700,213.6138000488281200,204.1221008300781200,18.8916606903076170,31.5487499237060550,53,106,87,80,65,15162,2147738477,2147595081,2148385856,2147871131,2147582016,2147261010,2148364141,2147227611,1660,3,15,43071
1352240312,5804,197.3500061035156200,19.3346004486084000,34.9729003906250000,214.7355957031250000,189.9687957763672000,19.3240699768066400,31.2957801818847660,53,106,89,80,64,15160,2147748946,2147629860,2148430802,2147873344,2147586578,2147291766,2148384027,2147228662,2567,3,15,65001
1352240387,5810,190.6999969482422000,19.3731002807617200,34.9819984436035160,215.3242950439453000,187.5594940185547000,19.3976898193359380,31.2316398620605470,53,104,90,78,64,15160,2147764205,2147664813,2148478774,2147873481,2147585307,2147310134,2148409408,2147230025,3471,3,16,9902
1352240442,5807,186.4499969482422000,19.8759002685546880,35.0429000854492200,214.7006988525390600,172.0912017822265600,19.8705596923828120,31.0557308197021500,55,105,88,80,63,15159,2147798162,2147789686,2148737938,2147872338,2147602541,2147382217,2148542262,2147241581,115,2,15,63618
1352240497,5805,182.8500061035156200,20.3500003814697270,35.1007995605468750,215.2615051269531200,156.8034973144531200,20.3382492065429700,30.8215293884277340,58,106,89,81,64,15155,2147814006,2147835986,2148814802,2147874724,2147609984,2147415378,2148577810,2147240420,2756,3,14,25779
1352240552,5807,179.4100036621093800,20.5373992919921880,35.1318016052246100,217.0749969482422000,150.8126068115234400,20.5216407775878900,30.6467800140380860,59,106,86,81,62,15154,2147837961,2147883428,2148895341,2147872493,2147620425,2147448237,2148611483,2147245421,1826,2,15,41446
1352240619,5807,174.9900054931640600,20.5841999053955080,35.1418991088867200,218.9692993164062500,148.9250946044922000,20.5794296264648440,30.5233592987060550,60,105,88,79,63,15153,2147872758,2147966592,2149038802,2147875629,2147630400,2147502409,2148678674,2147251547,1650,3,15,14688
1352240698,5806,169.8300018310547000,20.6135005950927730,35.1472015380859400,219.9720001220703000,147.9058074951172000,20.6106395721435550,30.4584999084472660,60,106,90,80,63,15152,2147926948,2148081499,2149221970,2147876809,2147657188,2147577709,2148769069,2147258614,1829,2,15,11000
1352240765,5807,165.9700012207031200,20.6404991149902340,35.1488990783691400,220.2342071533203000,146.9992980957031200,20.6383991241455080,30.4331493377685550,61,106,89,80,63,15147,2147973211,2148176640,2149376749,2147876580,2147676260,2147635072,2148847149,2147264237,1786,2,15,56944
1352240832,5803,162.0700073242187500,20.6494007110595700,35.1455993652343750,219.9170074462890600,146.2792053222656200,20.6604595184326170,30.4396896362304700,61,106,88,79,63,15148,2148035328,2148288347,2149560036,2147876891,2147705508,2147705563,2148944173,2147272292,1996,2,16,35479
1352240899,5813,158.3099975585937500,20.8903007507324220,35.1761016845703100,219.7787017822265600,138.8455963134765600,20.8881893157959000,30.3487396240234380,65,110,87,83,61,15144,2148106925,2148419821,2149767049,2147880969,2147736859,2147782034,2149040429,2147282532,1772,2,15,8849
1352240980,5812,154.5700073242187500,21.0273990631103500,35.1921997070312500,220.6990966796875000,134.7160949707031200,21.0147495269775400,30.2473297119140620,68,108,87,81,62,15143,2148203026,2148588105,2150033929,2147878683,2147776521,2147880576,2149167643,2147292544,341,3,15,50790
1352241071,5806,150.8500061035156200,21.3360004425048830,35.2327995300293000,222.1112976074218800,124.3630981445312500,21.3322391510009770,30.0403709411621100,78,112,88,82,61,15132,2148314953,2148772297,2150317906,2147881280,2147828416,2147984905,2149301814,2147298514,585,2,15,15573
1352241198,5804,146.9900054931640600,21.4995002746582030,35.2480010986328100,227.8914947509765600,119.1160964965820300,21.4932498931884770,29.6857204437255860,84,111,85,80,61,15125,2148449526,2148970770,2150614528,2147885888,2147882560,2148086089,2149422134,2147311744,2720,3,15,11531
1352241321,5804,142.6799926757812500,21.9060001373291000,35.2836990356445300,233.1688995361328000,106.2304992675781200,21.8890094757080080,29.2664604187011720,88,112,90,83,62,15121,2148665993,2149296530,2151102902,2147889161,2147971922,2148253686,2149630308,2147324973,3101,2,15,3304
1352241412,5811,138.6399993896484400,22.0459003448486330,35.2966995239257800,239.3807067871093800,101.0466995239257800,22.0483703613281250,28.9115505218505860,91,114,89,81,61,15113,2148931940,2149690550,2151669430,2147894893,2148085513,2148438363,2149856256,2147345947,2965,3,16,45183
1352241503,5810,134.4900054931640600,22.0986995697021500,35.2986984252929700,241.5220031738281200,99.6091690063476600,22.0925807952880860,28.7958507537841800,93,112,89,83,60,15105,2149250212,2150144713,2152312557,2147900955,2148220278,2148667200,2150134774,2147371026,3215,2,16,21250
1352241596,5806,130.3500061035156200,22.3153991699218750,35.3061981201171900,243.2230987548828000,92.6591262817382800,22.3064098358154300,28.6312904357910160,97,113,91,83,60,15103,2149685586,2150753974,2153137810,2147909805,2148409700,2148971446,2150493833,2147398546,3104,2,16,34654
1352241687,5809,127.1600036621093800,22.4470996856689450,35.3039016723632800,245.2225036621093800,89.4116973876953100,22.4063796997070300,28.5014305114746100,99,116,89,81,60,15097,2150112950,2151347218,2153949613,2147919963,2148591003,2149257252,2150809993,2147430080,228,2,15,64600
1352241838,5808,123.1600036621093800,22.4869003295898440,35.2933006286621100,245.5532073974609400,86.9571304321289000,22.4819602966308600,28.4559593200683600,106,114,91,82,60,15095,2150707520,2152066971,2154812141,2147931721,2148853851,2149605449,2151179529,2147461357,632,3,15,63002
1352241952,5807,118.7600021362304700,22.5855998992919920,35.2878990173339840,245.1688995361328000,83.9331436157226600,22.5751209259033200,28.4349308013916000,103,116,90,83,60,15086,2151735542,2153375725,2156452635,2147959241,2149297088,2150198500,2151827154,2147523812,1335,2,15,12074
1352242043,5810,114.2099990844726600,22.7963008880615230,35.2993011474609400,245.9328002929687500,78.1380996704101600,22.7537307739257800,28.3285293579101560,101,118,90,83,60,15078,2152578057,2154288758,2157468425,2147980781,2149663067,2150630848,2152248576,2147562276,2217,2,16,6110
1352242122,5808,110.6800003051757800,22.9876003265380860,35.3002014160156250,248.9494018554687500,71.0306167602539000,22.9729690551757800,28.1080799102783200,101,120,90,84,58,15079,2153688411,2155593097,2159101668,2148015643,2150193517,2151345252,2153053339,2147635684,2745,2,16,15842
1352242239,5808,107.1299972534179700,23.2077007293701170,35.3049011230468750,251.8097991943359400,63.8279304504394500,23.1953506469726560,27.8957691192626950,100,117,93,84,59,15073,2154786313,2156905152,2160603913,2148053092,2150773485,2152026340,2153716726,2147696246,2055,2,16,3857
1352242462,5811,103.5000000000000000,23.2938995361328120,35.3064002990722660,253.3979949951172000,60.9366989135742200,23.2846908569335940,27.7925491333007800,103,119,95,83,59,15065,2156697069,2159023424,2163004288,2148103881,2151817536,2153261147,2154933961,2147806372,1397,2,16,27511
1352242613,5808,98.7200012207031200,23.8369007110595700,35.3023986816406250,253.1488037109375000,44.0191307067871100,23.8081302642822270,27.5946197509765620,101,119,95,85,60,15048,2159573677,2162066605,2166337398,2148202441,2153283346,2154906276,2156591597,2147953929,2993,2,15,49747
1352242668,5807,96.9700012207031200,23.8798007965087900,35.3036994934082000,253.3549041748047000,42.1419715881347660,23.8662891387939450,27.5630702972412100,99,120,93,85,59,15044,2160389238,2162968886,2167255616,2148234852,2153784859,2155444306,2157062217,2148005312,2563,2,16,63668
1352242723,5809,95.1200027465820300,24.1993999481201170,35.3008003234863300,252.4940032958984400,33.8186111450195300,24.1243991851806640,27.4971599578857420,101,119,91,84,60,15046,2161437284,2164187346,2168685869,2148284416,2154376402,2156111204,2157720320,2148069101,2627,2,16,22233
1352242802,5808,93.4700012207031200,24.2390995025634770,35.2943992614746100,252.6417999267578000,30.9133300781250000,24.2145690917968750,27.4553699493408200,99,119,100,85,60,15049,2162297737,2165065892,2169694272,2148337856,2154816018,2156646829,2158235492,2148122532,128,2,16,51815
1352242917,5806,90.6600036621093800,24.2630996704101560,35.2853012084960940,252.4579010009765600,29.4864997863769530,24.2588691711425780,27.4456291198730470,98,121,92,85,59,15043,2164951012,2168038564,2172980086,2148454272,2156250139,2158224932,2159712438,2148263469,318,2,16,32731
1352242972,5805,88.5699996948242200,24.3279991149902340,35.2709007263183600,252.0308074951172000,27.5547504425048830,24.3188705444335940,27.4401302337646500,95,120,90,86,60,15042,2166458761,2169513947,2174313718,2148539154,2157253366,2159242742,2160617874,2148359652,3315,2,16,25528
1352243027,5809,86.6999969482421900,24.3474006652832030,35.2550010681152340,251.7579040527343800,26.8819599151611330,24.3397693634033200,27.4434299468994140,91,124,90,84,59,15045,2168168795,2171306816,2176075218,2148630628,2158308800,2160338770,2161573924,2148458377,2873,2,16,18647
1352243082,5809,85.1200027465820300,24.3745002746582030,35.2521018981933600,251.2716979980468800,26.0243701934814450,24.3664093017578120,27.4536209106445300,94,118,92,85,56,15039,2169987492,2173258898,2178025051,2148733952,2159421814,2161485467,2162559936,2148560694,2618,2,16,48954
1352243183,5808,82.1800003051757800,24.5972995758056640,35.2523002624511700,249.9730072021484400,19.1800594329834000,24.5791893005371100,27.4248199462890620,92,124,95,85,57,15037,2173779721,2177141851,2181870838,2148933732,2161975561,2164181814,2164971766,2148797952,2828,2,16,3526
1352243238,5809,80.2099990844726600,24.7527999877929700,35.2537994384765600,249.1488037109375000,15.1554698944091800,24.7044200897216800,27.4108390808105470,88,120,94,84,59,15038,2176931145,2180637558,2185514459,2149130633,2163956370,2166150482,2166605805,2148976475,2645,2,15,11662
1352243293,5813,78.3300018310546900,24.8323001861572270,35.2645988464355500,248.3972930908203000,11.6511497497558600,24.8135395050048830,27.3999900817871100,91,122,92,84,58,15034,2180001554,2184072530,2188907117,2149344283,2166183872,2168433033,2168506166,2149182418,2187,2,16,4945
1352243348,5809,76.5400009155273400,24.9354991912841800,35.2507019042968750,247.9568023681640600,8.8514862060546880,24.9007701873779300,27.3847904205322270,87,121,93,84,57,15038,2182350628,2186409280,2191259172,2149534043,2167897627,2170100370,2169923218,2149334573,2537,1,16,9679
1352243403,5808,74.8600006103515600,24.9992008209228500,35.2481002807617200,247.0220947265625000,6.1845932006835940,24.9839000701904300,27.3923397064209000,85,120,88,84,57,15043,2185546477,2189591689,2194565622,2149755117,2169976201,2172318482,2171871040,2149533650,3277,2,16,28995
1352243458,5808,73.3600006103515600,25.0499992370605470,35.2392997741699200,246.6143035888672000,4.9531822204589840,25.0223007202148440,27.3946800231933600,86,118,90,85,59,15042,2188446134,2192662162,2197653101,2149966098,2172120941,2174438473,2173582098,2149724297,3487,2,16,45189
1352243536,5808,71.1800003051757800,25.2991008758544920,35.1974983215332000,244.5027008056640600,-2.5137660503387450,25.2553291320800780,27.3949108123779300,81,118,92,86,56,15039,2191769673,2196410084,2201418697,2150384036,2174671140,2176731209,2175030226,2149920027,766,2,16,38647
1352243591,5809,69.8000030517578100,25.3402996063232420,35.1846008300781250,241.8507995605468800,-4.7675008773803710,25.3257293701171880,27.4831790924072270,80,118,90,83,57,15037,2189926198,2193943634,2197904384,2150257161,2175192969,2176971483,2174972105,2149886445,1226,2,16,12764
1352243658,5810,68.3399963378906200,25.3586006164550780,35.1781005859375000,240.9075927734375000,-5.5941128730773930,25.3515491485595700,27.5145606994628900,78,121,91,84,57,15039,2182776329,2185244041,2187431040,2149762688,2171341357,2171984905,2169682614,2149391387,1749,2,16,32957
1352243749,5808,66.1900024414062500,25.3610992431640620,35.1705017089843750,240.0485992431640600,-5.7400608062744140,25.3561191558837900,27.5508193969726560,77,121,92,84,57,15041,2193234614,2197030180,2200121472,2150717504,2178620937,2179429357,2175818825,2150085613,1532,2,16,29223
1352243840,5806,63.2299995422363300,25.3731994628906250,35.1691017150878900,239.4718017578125000,-6.0916538238525390,25.3670997619628900,27.5720691680908200,76,124,92,85,58,15039,2203271661,2208282285,2211996470,2151895972,2187976384,2188876205,2183647232,2150978898,1781,1,16,22640
1352243895,5817,60.5099983215332000,25.4099998474121100,35.1643981933593750,239.1750030517578000,-7.3064451217651370,25.4050693511962900,27.5702896118164060,75,120,90,84,56,15036,2198626157,2201783670,2203624146,2151669129,2185443995,2185078025,2179323565,2150572845,1809,1,16,28536
1352243950,5808,57.8899993896484400,25.4561004638671880,35.1604995727539060,238.6114044189453000,-8.7514667510986330,25.4502506256103500,27.5776901245117200,74,121,92,84,57,15026,2204741622,2208516306,2210684269,2152720685,2192794907,2192761874,2186063387,2151361819,2138,1,16,5738
1352244005,5805,55.4099998474121100,25.5340995788574220,35.1573982238769500,237.9452972412109400,-12.1349201202392580,25.5560703277587900,27.5660800933837900,76,122,91,86,61,15030,2235527908,2243927725,2249224420,2156922496,2216156077,2216702409,2205711689,2153839890,2028,1,17,28237
1352244060,5807,53.0099983215332000,25.6135997772216800,35.1586990356445300,237.3451995849609400,-13.7247104644775390,25.6058292388916000,27.5733394622802730,69,121,91,84,59,15030,2211326080,2215129856,2216680758,2154308379,2200940681,2199719122,2190405778,2152028278,1998,1,16,30983
1352244117,5804,50.6199989318847660,25.6828002929687500,35.1674003601074200,236.8166046142578000,-15.8658399581909180,25.6728496551513670,27.5709400177001950,67,121,91,84,56,15031,2197166939,2198458267,2198141632,2152879990,2189430482,2186822061,2178607286,2150803766,1668,1,16,26251
1352244172,5809,48.3600006103515600,25.7357006072998050,35.1735992431640600,236.4792022705078000,-17.6703205108642580,25.7293701171875000,27.5639095306396500,70,120,93,85,55,15026,2231499044,2237064384,2239481792,2158675017,2219123776,2217115474,2203170870,2153925476,1316,1,16,61635
1352244227,5807,46.2299995422363300,25.8719005584716800,35.1921005249023440,235.6972961425781200,-22.0888805389404300,25.8678302764892580,27.5448398590087900,67,119,91,83,58,15025,2218618550,2221331538,2222125952,2156860306,2210663890,2207716562,2195014592,2152933001,569,1,16,27777
1352244282,5810,44.3100013732910160,25.9195995330810550,35.2000007629394500,235.3166961669922000,-23.6643199920654300,25.9172306060791000,27.5427894592285160,63,118,93,85,57,15026,2230961252,2234955035,2236816859,2159461750,2222341805,2219232576,2204197357,2154334372,3435,2,16,32783
1352244337,5808,42.3899993896484400,25.9549999237060550,35.2067985534668000,235.1506958007812500,-24.9259204864501950,25.9568004608154300,27.5349693298339840,63,119,93,84,58,15024,2259678848,2267047085,2271315538,2166237686,2251985462,2249070592,2228155264,2157649508,3200,2,16,11802
1352244392,5810,40.4500007629394500,25.9841003417968750,35.2128982543945300,234.9851989746093800,-25.9958400726318360,25.9903697967529300,27.5293006896972660,62,118,92,84,56,15019,2257672182,2263894107,2267119076,2166701339,2252952694,2248488941,2226251072,2157470262,3022,1,17,59676
1352244470,5811,37.0499992370605500,26.0286006927490230,35.2228012084960940,234.8258056640625000,-27.4423408508300780,26.0357704162597660,27.5187301635742200,60,120,90,85,57,15016,2300201325,2312305280,2320065673,2180806354,2296639021,2291854445,2260157458,2163335698,2977,1,16,36538
1352244525,5808,33.9700012207031250,26.0478000640869140,35.2243003845214840,234.7460937500000000,-28.0930099487304700,26.0561904907226560,27.5144004821777340,59,121,92,84,56,15018,2310076928,2322231862,2330015277,2187504612,2315879954,2310042157,2273216859,2166142144,3034,1,16,43727
1352244580,5806,30.8600006103515620,26.0615997314453120,35.2244987487793000,234.7673034667968800,-28.8238296508789060,26.0791301727294920,27.5045204162597660,56,121,93,82,54,15016,2298493394,2308079387,2314580571,2189397138,2310687853,2303092406,2266233481,2166339986,3313,1,16,37422